Date String (YYYY-MM-DD hh:mm:ss) UTC,Instrument flags,Ambient pressure (hPa),Sample flow (lpm),Bypass flow (lpm),Sample temperature (°C),Ambient temperature (°C),ASC tube jacket temperature (°C),LED temperature (°C),Box temperature (°C),Sample RH (%),Span deviation,Mass concentration (μg/m³),Mass concentration (μg/m³),Mass concentration (μg/m³)
DateTimeUTC,F1_M11,P_M11,Q1_M11,Q2_M11,T1_M11,T2_M11,T3_M11,T4_M11,T5_M11,U1_M11,ZSPAN_M11,X2_M11,X0_M11,X1_M11
2021-08-24 22:00:00,,0826.8,5.00,0.00,28.9,27.6,00.0,37.8,30.8,14.8,0000.7,0004.50,0009.93,0003.92
2021-08-24 22:01:00,,0826.8,5.00,0.00,29.0,27.6,00.0,37.9,30.8,14.8,0000.8,0004.49,0009.86,0003.92
2021-08-24 22:02:00,,0826.8,5.01,0.00,28.9,26.3,00.0,37.8,30.5,14.9,0000.5,0004.47,0009.54,0003.92
2021-08-24 22:03:00,,0826.8,5.00,0.00,28.8,25.6,00.0,37.8,30.2,15.1,0000.1,0004.46,0009.49,0003.91
2021-08-24 22:04:00,,0826.8,5.00,0.00,28.8,26.1,00.0,37.8,30.3,15.4,0000.6,0004.45,0009.19,0003.92
2021-08-24 22:05:00,,0826.7,4.99,0.00,28.7,26.5,00.0,37.8,30.4,14.3,0001.4,0004.46,0009.16,0003.92
2021-08-24 22:06:00,,0826.8,4.99,0.00,28.8,26.9,00.0,37.8,30.6,14.0,0001.8,0004.44,0008.53,0003.92
2021-08-24 22:07:00,,0826.9,5.01,0.00,28.8,27.3,00.0,37.8,30.7,13.3,0001.7,0004.44,0008.40,0003.93
2021-08-24 22:08:00,,0826.8,5.00,0.00,28.9,27.6,00.0,37.8,30.8,13.4,0002.1,0004.46,0008.61,0003.94
2021-08-24 22:09:00,,0826.8,5.00,0.00,28.9,26.9,00.0,37.8,30.6,13.6,0002.3,0004.46,0008.58,0003.95
2021-08-24 22:10:00,,0826.7,5.01,0.00,28.8,25.6,00.0,37.8,30.2,13.8,0002.7,0004.45,0008.61,0003.95
2021-08-24 22:11:00,,0826.8,5.01,0.00,28.7,25.7,00.0,37.8,30.2,13.1,0003.2,0004.43,0008.51,0003.95
2021-08-24 22:12:00,,0826.8,4.98,0.00,28.7,26.2,00.0,37.8,30.3,13.6,0003.3,0004.41,0008.36,0003.95
2021-08-24 22:13:00,,0826.8,5.01,0.00,28.7,26.6,00.0,37.8,30.4,14.4,0003.3,0004.42,0008.75,0003.96
2021-08-24 22:14:00,,0826.8,4.99,0.00,28.8,27.0,00.0,37.8,30.5,14.4,0003.4,0004.42,0009.21,0003.97
2021-08-24 22:15:00,,0826.8,5.00,0.00,28.8,27.4,00.0,37.8,30.7,15.1,0003.2,0004.43,0009.36,0003.99
2021-08-24 22:16:00,,0826.8,4.99,0.00,28.9,27.4,00.0,37.8,30.7,15.0,0002.5,0004.47,0010.11,0004.01
2021-08-24 22:17:00,,0826.8,5.01,0.00,28.8,26.0,00.0,37.8,30.3,15.1,0002.0,0004.51,0011.58,0004.03
2021-08-24 22:18:00,,0826.8,4.99,0.00,28.7,25.5,00.0,37.8,30.1,15.6,0002.2,0004.49,0011.57,0004.03
2021-08-24 22:19:00,,0826.8,5.00,0.00,28.7,25.9,00.0,37.8,30.2,14.2,0002.2,0004.50,0012.36,0004.03
2021-08-24 22:20:00,,0826.8,4.99,0.00,28.7,26.4,00.0,37.7,30.4,14.1,0002.3,0004.49,0012.58,0004.03
2021-08-24 22:21:00,,0826.8,5.01,0.00,28.7,26.7,00.0,37.7,30.5,14.5,0002.5,0004.50,0012.85,0004.04
2021-08-24 22:22:00,,0826.8,5.00,0.00,28.8,27.2,00.0,37.7,30.6,14.9,0002.5,0004.51,0013.00,0004.05
2021-08-24 22:23:00,,0826.8,5.00,0.00,28.8,27.6,00.0,37.8,30.7,15.2,0002.4,0004.55,0013.56,0004.07
2021-08-24 22:24:00,,0826.8,5.02,0.00,28.9,27.9,00.0,37.8,30.9,15.2,0002.1,0004.55,0013.13,0004.07
2021-08-24 22:25:00,,0826.7,4.99,0.00,28.9,27.1,00.0,37.8,30.6,15.2,0001.8,0004.56,0013.06,0004.07
2021-08-24 22:26:00,,0826.7,5.01,0.00,28.8,25.6,00.0,37.8,30.2,15.3,0001.8,0004.57,0013.10,0004.07
2021-08-24 22:27:00,,0826.7,5.00,0.00,28.7,25.7,00.0,37.8,30.2,15.4,0002.0,0004.55,0012.59,0004.07
2021-08-24 22:28:00,,0826.7,4.99,0.00,28.7,26.2,00.0,37.8,30.4,14.7,0002.3,0004.53,0011.48,0004.05
2021-08-24 22:29:00,,0826.7,5.02,0.00,28.7,26.6,00.0,37.7,30.4,15.0,0002.3,0004.54,0010.91,0004.05
2021-08-24 22:30:00,,0826.7,5.00,0.00,28.8,27.0,00.0,37.8,30.6,15.1,0002.2,0004.54,0010.52,0004.05
2021-08-24 22:31:00,,0826.7,5.00,0.00,28.8,27.4,00.0,37.8,30.7,14.4,0002.4,0004.51,0009.84,0004.05
2021-08-24 22:32:00,,0826.7,5.00,0.00,28.9,27.8,00.0,37.8,30.8,13.7,0002.3,0004.50,0009.57,0004.04
2021-08-24 22:33:00,,0826.7,5.00,0.00,28.9,27.0,00.0,37.8,30.6,12.8,0002.1,0004.49,0009.49,0004.02
2021-08-24 22:34:00,,0826.8,5.00,0.00,28.8,25.6,00.0,37.8,30.1,12.7,0002.3,0004.46,0008.92,0004.00
2021-08-24 22:35:00,,0826.7,5.00,0.00,28.7,25.8,00.0,37.8,30.2,13.5,0002.6,0004.47,0008.90,0003.98
2021-08-24 22:36:00,,0826.7,5.00,0.00,28.7,26.3,00.0,37.8,30.4,15.0,0003.1,0004.47,0008.75,0003.98
2021-08-24 22:37:00,,0826.8,4.99,0.00,28.7,26.7,00.0,37.7,30.5,15.5,0003.1,0004.48,0008.35,0003.97
2021-08-24 22:38:00,,0826.7,5.01,0.00,28.8,27.1,00.0,37.8,30.6,15.6,0002.9,0004.48,0008.35,0003.98
2021-08-24 22:39:00,,0826.7,5.01,0.00,28.9,27.5,00.0,37.8,30.8,15.1,0003.2,0004.50,0008.27,0003.99
2021-08-24 22:40:00,,0826.8,5.00,0.00,28.9,27.8,00.0,37.8,30.9,15.3,0003.1,0004.50,0008.08,0004.01
2021-08-24 22:41:00,,0826.8,5.00,0.00,28.9,27.0,00.0,37.8,30.6,14.3,0003.0,0004.51,0007.72,0004.03
2021-08-24 22:42:00,,0826.8,5.01,0.00,28.8,25.7,00.0,37.8,30.2,14.8,0002.7,0004.54,0007.77,0004.04
2021-08-24 22:43:00,,0826.8,5.00,0.00,28.7,25.8,00.0,37.8,30.2,15.0,0002.4,0004.54,0007.65,0004.06
2021-08-24 22:44:00,,0826.8,5.00,0.00,28.7,26.3,00.0,37.8,30.4,14.7,0002.3,0004.55,0007.62,0004.06
2021-08-24 22:45:00,,0826.8,4.99,0.00,28.7,26.7,00.0,37.8,30.5,14.2,0002.1,0004.58,0007.69,0004.08
2021-08-24 22:46:00,,0826.8,5.01,0.00,28.8,27.0,00.0,37.8,30.6,15.0,0001.8,0004.56,0008.18,0004.09
2021-08-24 22:47:00,,0826.8,5.00,0.00,28.9,27.4,00.0,37.8,30.7,15.7,0001.9,0004.57,0008.99,0004.11
2021-08-24 22:48:00,,0826.9,4.99,0.00,28.9,27.8,00.0,37.8,30.9,14.1,0002.4,0004.56,0009.49,0004.11
2021-08-24 22:49:00,,0826.8,5.00,0.00,29.0,27.8,00.0,37.8,30.9,13.7,0002.4,0004.54,0009.40,0004.10
2021-08-24 22:50:00,,0826.8,5.01,0.00,28.9,26.3,00.0,37.8,30.4,14.0,0002.2,0004.52,0009.29,0004.09
2021-08-24 22:51:00,,0826.8,5.01,0.00,28.8,25.6,00.0,37.8,30.2,13.9,0002.1,0004.55,0009.36,0004.08
2021-08-24 22:52:00,,0826.9,5.00,0.00,28.7,26.1,00.0,37.8,30.3,14.3,0002.2,0004.52,0009.71,0004.07
2021-08-24 22:53:00,,0826.8,5.00,0.00,28.7,26.5,00.0,37.8,30.4,14.5,0002.3,0004.51,0010.24,0004.07
2021-08-24 22:54:00,,0826.9,4.99,0.00,28.8,26.9,00.0,37.8,30.5,14.5,0002.6,0004.53,0010.31,0004.07
2021-08-24 22:55:00,,0826.9,5.00,0.00,28.8,27.3,00.0,37.8,30.7,15.4,0003.0,0004.55,0010.30,0004.09
2021-08-24 22:56:00,,0827.3,5.00,0.00,28.9,27.6,00.0,37.8,30.8,14.4,0003.3,0004.56,0010.82,0004.10
2021-08-24 22:57:00,,0827.0,4.99,0.00,29.0,27.7,00.0,37.8,30.8,14.7,0003.5,0004.58,0010.38,0004.11
2021-08-24 22:58:00,,0827.2,5.00,0.00,28.9,26.2,00.0,37.9,30.5,15.2,0003.2,0004.60,0009.86,0004.11
2021-08-24 22:59:00,,0827.1,5.00,0.00,28.8,25.5,00.0,37.8,30.2,15.7,0002.7,0004.63,0009.84,0004.14
